Weather observations for the past three days for
Salem - McNary Field
Metric (Imperial)
Date Time (pdt) Wind (kph) Vis. (km) Weather Sky Cond. Temperature (ºC) Relative Humidity Wind Chill (°C) Heat Index (°C) Pressure Precipitation (cm)
Air Dwpt 6 hour altimeter (cm) sea level (mb) 1 hr 3 hr 6 hr
Max. Min.
24 21:56 W 22 16.09 Overcast BKN033 OVC041 13.9 8.3 69% 75.92 1012.3
24 20:56 W 13 16.09 Overcast BKN028 OVC040 15 8.9 67% 75.87 1011.5
24 19:56 W 11 16.09 Overcast SCT026 BKN034 OVC055 15.6 9.4 67% 75.84 1011.1
24 18:56 NW 17 16.09 Overcast BKN037 OVC048 16.1 10 67% 75.84 1011.0
24 17:56 NW 20 16.09 Overcast OVC046 17.8 10 60% 75.84 1011.2
24 16:56 NW 9 16.09 Overcast OVC050 20.6 5.6 21.7 17.8 38% 75.84 1011.1
24 15:56 Calm 16.09 Overcast OVC046 20 4.4 36% 75.87 1011.4
24 14:56 Vrbl 6 16.09 Overcast OVC050 19.4 2.2 32% 75.9 1011.9
24 13:56 S 9 16.09 Overcast BKN070 OVC110 19.4 7.8 47% 75.92 1012.0
24 12:56 Calm 16.09 Overcast SCT030 BKN085 OVC110 18.3 6.7 47% 75.95 1012.3
24 11:56 Calm 16.09 Mostly Cloudy FEW036 BKN100 19.4 7.2 45% 75.95 1012.6
24 10:56 W 7 16.09 Mostly Cloudy SCT030 BKN110 18.3 8.9 18.3 10 54% 76 1013.0
24 09:56 SE 7 16.09 Mostly Cloudy BKN100 15.6 8.9 65% 76.02 1013.3
24 08:56 Calm 16.09 Overcast BKN080 OVC100 14.4 7.8 65% 76.05 1013.7
24 07:56 Calm 16.09 Mostly Cloudy BKN080 BKN100 12.8 7.8 72% 76.05 1013.8
24 06:56 SE 9 16.09 Overcast OVC080 11.1 7.8 80% 76.05 1014.0
24 05:56 Calm 16.09 Overcast OVC110 11.1 7.2 77% 76.05 1013.9
24 04:56 Calm 16.09 A Few Clouds FEW120 10.6 7.2 12.2 9.4 80% 76.07 1014.0
24 03:56 Calm 16.09 Fair CLR 11.1 7.2 77% 76.07 1014.2
24 02:56 SE 6 16.09 A Few Clouds FEW090 FEW110 10.6 6.7 77% 76.1 1014.6
24 01:56 Calm 16.09 Fair CLR 10.6 6.7 77% 76.15 1015.3
24 00:56 Calm 16.09 Fair CLR 10.6 6.1 74% 76.17 1015.6
23 23:56 Calm 16.09 Fair CLR 11.7 6.1 69% 76.23 1016.1
23 22:56 Calm 16.09 Fair CLR 11.7 6.1 20 11.7 69% 76.23 0.0
23 21:56 Calm 16.09 Fair CLR 13.9 6.1 60% 76.25 0.0
23 20:56 NE 7 16.09 Fair CLR 16.1 6.1 52% 76.25 0.0
23 19:56 NE 13 16.09 Fair CLR 17.8 6.1 46% 76.3 0.0
23 18:56 NE 17 16.09 Fair CLR 18.9 6.1 43% 76.3 0.0
23 17:56 N 9 16.09 A Few Clouds FEW045 19.4 6.7 44% 76.35 0.0
23 16:56 N 15 16.09 A Few Clouds FEW043 19.4 6.1 42% 76.38 0.0
23 15:56 N 11 16.09 A Few Clouds FEW041 19.4 6.1 42% 76.43 0.0
23 14:56 Vrbl 7 16.09 Mostly Cloudy BKN041 18.9 6.1 43% 76.48 0.0
23 13:56 Vrbl 6 16.09 Overcast OVC041 18.3 5.6 43% 76.53 0.0
23 12:56 E 6 16.09 Overcast OVC040 16.7 5.6 48% 76.56 0.0
23 11:56 N 7 16.09 Overcast OVC037 14.4 5 53% 76.58 0.0
23 10:56 N 7 16.09 Mostly Cloudy BKN035 0 0 0% 76.61 0.0
23 09:56 Calm 16.09 Partly Cloudy SCT043 0 0 0% 76.63 0.0
23 08:56 Calm 16.09 Overcast OVC042 0 0 0% 76.66 0.0
23 07:56 S 6 16.09 Overcast OVC042 0 0 0% 76.66 0.0
23 06:56 Calm 16.09 Overcast OVC040 0 0 0% 76.66 0.0
23 05:56 Calm 16.09 Overcast OVC039 0 0 0% 76.63 0.0
23 04:56 Calm 16.09 Fair CLR 0 0 0% 76.63 0.0
23 03:56 Calm 16.09 Mostly Cloudy FEW038 BKN065 0 0 0% 76.63 0.0
23 02:56 Calm 16.09 Mostly Cloudy FEW040 BKN065 0 0 0% 76.63 0.0
23 01:56 S 6 16.09 Mostly Cloudy BKN033 BKN043 0 0 0% 76.63 0.0
23 00:56 SE 6 16.09 Fair CLR 0 0 0% 76.63 0.0
22 23:56 SE 11 16.09 Mostly Cloudy BKN049 BKN060 0 0 0% 76.63 0.0
22 22:56 SE 11 16.09 Mostly Cloudy BKN060 0 0 0% 76.63 0.0
22 21:56 S 6 16.09 Overcast OVC060 0 0 0% 76.61 0.0
22 20:56 SW 9 16.09 Overcast OVC065 0 0 0% 76.53 0.0
22 19:56 W 13 16.09 Overcast BKN038 OVC070 0 0 0% 76.53 0.0
22 18:56 W 22 16.09 Overcast FEW041 OVC070 0 0 0% 76.5 0.0
22 17:56 W 19 16.09 Overcast OVC065 0 0 0% 76.45 0.0
22 16:56 W 26 16.09 Overcast OVC065 0 0 0% 76.43 0.0
22 15:56 NW 30 G 46 16.09 Overcast OVC060 0 0 0% 76.4 0.0
22 14:56 W 17 16.09 Mostly Cloudy BKN038 0 0 0% 76.35 0.0
22 13:56 NW 30 G 41 16.09 A Few Clouds FEW038 0 0 0% 76.35 0.0
22 12:56 W 20 G 35 16.09 Light Rain BKN036 BKN048 OVC070 0 0 0% 76.35 0.0
22 11:56 W 19 16.09 Overcast FEW035 BKN047 OVC060 0 0 0% 76.35 0.0
22 10:56 NW 17 G 37 16.09 Mostly Cloudy BKN031 BKN038 BKN070 0 0 0% 76.33 0.0 0.03 0.03
22 09:56 NW 17 16.09 Overcast BKN044 OVC050 0 0 0% 76.33 0.0
22 08:56 W 19 16.09 Partly Cloudy FEW044 SCT060 0 0 0% 76.3 0.0
22 07:56 SW 11 16.09 Fair CLR 0 0 0% 76.28 0.0
22 06:56 S 13 16.09 Mostly Cloudy FEW033 BKN060 0 0 0% 76.28 0.0
22 05:56 SW 6 16.09 Overcast BKN035 BKN044 OVC055 0 0 0% 76.28 0.0
22 04:56 W 7 16.09 Overcast OVC049 0 0 0% 76.28 0.0
22 03:56 NW 13 16.09 Overcast BKN041 OVC049 0 0 0% 76.25 0.0
22 02:56 W 20 16.09 Partly Cloudy FEW028 SCT043 0 0 0% 76.23 0.0
22 01:56 SW 11 16.09 Overcast FEW022 OVC035 0 0 0% 76.23 0.0
22 00:56 SW 11 16.09 Overcast FEW041 OVC050 0 0 0% 76.2 0.0
21 23:56 S 13 16.09 Overcast SCT029 OVC050 0 0 0% 76.2 0.0
21 22:56 S 11 16.09 Overcast OVC050 0 0 0% 76.23 0.0 0.03
Date Time (pdt) Wind (kph) Vis. (km) Weather Sky Cond. Air Dwpt Max. Min. Relative Humidity Wind Chill (°C) Heat Index (°C) altimeter (cm) sea level (mb) 1 hr 3 hr 6 hr
6 hour
Temperature (ºC) Pressure Precipitation (cm)